Content
SEND FEEDBACK

Daily
Averages
Monthly
Summary
United States of America

UMATAC, GUAM


Home > North America > United States > Guam
Elevation: 190 feet     Latitude: 13 17N     Longitude: 144 40E

WEATHER
 
SELECT A DAY
Number of Records: 342,273;   Date Range: 1/1/95 - 8/30/14
 
SHARE

PRINT THIS DATA

[ ← Previous Day ]
WEATHER ALMANAC - JANUARY 1, 2014
[ Next Day → ]
[ °C ]   °F
Weather ElementAverageHighLow
Temperature77.8 °F81 °F (3:58 pm)75.2 °F (12:09 am)
Dewpoint70.4 °F78.8 °F (1:08 pm) (7:00 pm)
Humidity94.9 %100 % (1:10 am)86 % (2:58 pm)
Barometer29.89 in29.94 in (9:26 am)29.82 in (3:58 am)
Wind Speed13.5 mph26.5 mph (8:43 am)
Wind Gust36.8 mph (12:58 am)
Weather ElementAverage
Visibility8.6 mi
Wind DirectionENE (58.9 °)

Weather ElementTotal
Precipitation0.32 in
Cooling Degree Days13.1 (Base 65)
Growing Degree Days28.1 (Base 50)
Averaged from 103 records on January 1, 2014
WEATHER CONDITIONS BREAKOUT
WIND DIRECTION BREAKOUT
WEATHER BY HOUR - JANUARY 1, 2014
[ °C ]   °F
Local TimeTemperatureDewpointHumidityBarometerVisibilityWind DirectionWind SpeedGust SpeedPrecipitationEventsConditions
12:09 AM75.2 °F71.6 °F89 %29.91 in10.0 miEast (80°)18.4 mph23.0 mphScattered Clouds
12:24 AM75.2 °F73.4 °F94 %29.91 in10.0 miEast (90°)12.7 mphMostly Cloudy
12:29 AM75.2 °F73.4 °F94 %29.91 in10.0 miEast (80°)11.5 mphScattered Clouds
12:58 AM76.3 °F75.7 °F98 %29.88 in10.0 miENE (60°)24.2 mph36.8 mph0.02 inScattered Clouds
12:59 AM77.0 °F75.2 °F94 %29.91 in4.0 miNE (40°)19.6 mph36.8 mphRainLight Rain
1:10 AM75.2 °F75.2 °F100 %29.91 in9.0 miENE (60°)10.4 mphScattered Clouds
1:58 AM77.0 °F0.0 °F29.86 in10.0 miNE (40°)16.1 mph0.06 inScattered Clouds
2:58 AM77.2 °F74.8 °F92 %29.83 in10.0 miENE (60°)16.1 mph23.0 mphPartly Cloudy
3:28 AM77.0 °F77.0 °F100 %29.85 in10.0 miENE (60°)12.7 mphMostly Cloudy
3:33 AM77.0 °F75.2 °F94 %29.85 in10.0 miENE (60°)15.0 mphMostly Cloudy
3:43 AM77.0 °F75.2 °F94 %29.85 in10.0 miENE (60°)12.7 mphMostly Cloudy
3:58 AM77.2 °F75.7 °F95 %29.82 in10.0 miNE (50°)10.4 mphMostly Cloudy
4:03 AM77.0 °F77.0 °F100 %29.85 in10.0 miNE (50°)13.8 mphMostly Cloudy
4:13 AM77.0 °F77.0 °F100 %29.85 in10.0 miNE (50°)12.7 mphScattered Clouds
4:23 AM77.0 °F75.2 °F94 %29.85 in10.0 miNE (50°)12.7 mphMostly Cloudy
4:28 AM77.0 °F75.2 °F94 %29.85 in10.0 miENE (60°)13.8 mphScattered Clouds
4:58 AM77.5 °F74.8 °F91 %29.83 in10.0 miENE (60°)16.1 mphScattered Clouds
5:58 AM77.5 °F75.4 °F93 %29.83 in10.0 miNE (50°)12.7 mphScattered Clouds
6:17 AM77.0 °F75.2 °F94 %29.87 in6.0 miENE (70°)23.0 mph28.8 mphRainLight Rain
6:22 AM75.2 °F75.2 °F100 %29.88 in4.0 miENE (60°)17.3 mph28.8 mphRainRain
6:27 AM75.2 °F75.2 °F100 %29.88 in4.0 miNE (50°)15.0 mph26.5 mphRainLight Rain
6:28 AM75.2 °F75.2 °F100 %29.88 in4.0 miNE (50°)15.0 mph26.5 mphMostly Cloudy
6:33 AM75.2 °F75.2 °F100 %29.88 in7.0 miNE (50°)11.5 mphMostly Cloudy
6:38 AM75.2 °F75.2 °F100 %29.88 in10.0 miNE (50°)12.7 mphMostly Cloudy
6:58 AM76.6 °F76.3 °F99 %29.86 in10.0 miNE (50°)11.5 mph0.03 inMostly Cloudy
7:48 AM78.8 °F75.2 °F89 %29.90 in10.0 miENE (60°)16.1 mphMostly Cloudy
7:58 AM78.3 °F75.4 °F91 %29.88 in10.0 miENE (60°)19.6 mph26.5 mphMostly Cloudy
8:18 AM77.0 °F75.2 °F94 %29.92 in10.0 miENE (60°)12.7 mphOvercast
8:43 AM77.0 °F75.2 °F94 %29.93 in4.0 miENE (70°)26.5 mph34.5 mphRainLight Rain
8:48 AM77.0 °F77.0 °F100 %29.93 in1.5 miENE (70°)18.4 mph34.5 mphRainRain
8:53 AM75.2 °F75.2 °F100 %29.93 in1.5 miENE (60°)17.3 mph25.3 mphRainLight Rain
8:58 AM75.2 °F75.2 °F100 %29.91 in4.0 miENE (60°)16.1 mph25.3 mph0.04 inLight Drizzle
9:01 AM75.2 °F75.2 °F100 %29.93 in7.0 miENE (60°)15.0 mphMostly Cloudy
9:11 AM77.0 °F0.0 °F29.93 in10.0 miENE (60°)19.6 mph23.0 mphMostly Cloudy
9:16 AM77.0 °F0.0 °F29.93 in10.0 miENE (60°)16.1 mphMostly Cloudy
9:26 AM77.0 °F77.0 °F100 %29.94 in10.0 miNE (50°)18.4 mphMostly Cloudy
9:31 AM77.0 °F77.0 °F100 %29.94 in10.0 miNE (50°)19.6 mphMostly Cloudy
9:36 AM78.8 °F77.0 °F94 %29.94 in10.0 miENE (60°)17.3 mphMostly Cloudy
9:41 AM78.8 °F77.0 °F94 %29.94 in10.0 miNE (50°)17.3 mphScattered Clouds
9:46 AM78.8 °F77.0 °F94 %29.94 in10.0 miNE (50°)13.8 mphMostly Cloudy
9:56 AM78.8 °F77.0 °F94 %29.94 in10.0 miENE (60°)11.5 mphMostly Cloudy
9:58 AM79.5 °F77.2 °F93 %29.91 in10.0 miENE (60°)11.5 mph0.00 inMostly Cloudy
10:03 AM80.6 °F77.0 °F89 %29.93 in10.0 miNE (50°)12.7 mph19.6 mphScattered Clouds
10:38 AM80.6 °F77.0 °F89 %29.92 in10.0 miNE (40°)16.1 mph19.6 mphMostly Cloudy
10:41 AM78.8 °F77.0 °F94 %29.92 in6.0 miNE (50°)18.4 mph19.6 mphDrizzle
10:51 AM77.0 °F77.0 °F100 %29.92 in5.0 miNE (50°)11.5 mphMostly Cloudy
10:58 AM77.4 °F76.3 °F96 %29.89 in10.0 miNE (40°)11.5 mph0.00 inMostly Cloudy
11:03 AM78.8 °F77.0 °F94 %29.92 in10.0 miNE (50°)12.7 mph19.6 mphScattered Clouds
11:31 AM78.8 °F77.0 °F94 %29.91 in4.0 miENE (70°)13.8 mph20.7 mphRainRain
11:36 AM78.8 °F77.0 °F94 %29.91 in1.5 miENE (70°)10.4 mph20.7 mphRainRain
11:41 AM77.0 °F77.0 °F100 %29.91 in1.2 miNE (50°)12.7 mph18.4 mphRainLight Rain
11:46 AM77.0 °F77.0 °F100 %29.91 in2.5 miNE (50°)16.1 mph21.9 mphRainRain
11:51 AM77.0 °F77.0 °F100 %29.91 in4.0 miENE (60°)9.2 mph21.9 mphRainLight Rain
11:58 AM77.0 °F77.0 °F100 %29.87 in8.0 miENE (60°)9.2 mph0.10 inRainLight Rain
12:00 PM77.0 °F0.0 °F29.90 in10.0 miNE (50°)10.4 mphMostly Cloudy
12:14 PM78.8 °F77.0 °F94 %29.90 in9.0 miENE (70°)13.8 mphRainLight Rain
12:24 PM77.0 °F75.2 °F94 %29.89 in5.0 miEast (80°)10.4 mph19.6 mphRainLight Rain
12:29 PM77.0 °F75.2 °F94 %29.89 in5.0 miENE (70°)8.1 mphLight Drizzle
12:39 PM77.0 °F75.2 °F94 %29.88 in10.0 miENE (70°)10.4 mphLight Drizzle
12:40 PM78.8 °F77.0 °F94 %29.88 in10.0 miENE (70°)11.5 mphMostly Cloudy
12:58 PM80.6 °F77.0 °F89 %29.86 in10.0 miENE (60°)8.1 mph0.01 inPartly Cloudy
1:08 PM80.6 °F78.8 °F94 %29.87 in10.0 miNE (40°)11.5 mphLight Drizzle
1:23 PM77.0 °F77.0 °F100 %29.87 in5.0 miENE (70°)17.3 mph26.5 mphRainLight Rain
1:38 PM77.0 °F77.0 °F100 %29.87 in10.0 miENE (60°)13.8 mph19.6 mphLight Drizzle
1:39 PM77.0 °F77.0 °F100 %29.87 in10.0 miENE (60°)12.7 mph19.6 mphOvercast
1:49 PM78.8 °F77.0 °F94 %29.86 in10.0 miENE (60°)11.5 mphMostly Cloudy
1:54 PM78.8 °F77.0 °F94 %29.86 in10.0 miENE (60°)11.5 mphMostly Cloudy
1:58 PM78.1 °F77.4 °F98 %29.83 in10.0 miENE (60°)11.5 mph0.01 inMostly Cloudy
2:58 PM80.2 °F75.7 °F86 %29.82 in10.0 miENE (70°)11.5 mphScattered Clouds
3:58 PM81.0 °F77.7 °F90 %29.82 in10.0 miNE (50°)11.5 mphPartly Cloudy
4:28 PM80.6 °F77.0 °F89 %29.85 in10.0 miENE (60°)13.8 mphMostly Cloudy
4:38 PM80.6 °F77.0 °F89 %29.85 in10.0 miNE (50°)11.5 mphMostly Cloudy
4:43 PM80.6 °F77.0 °F89 %29.85 in10.0 miNE (50°)15.0 mphMostly Cloudy
4:58 PM80.6 °F76.5 °F87 %29.83 in10.0 miNE (50°)11.5 mphMostly Cloudy
5:03 PM80.6 °F77.0 °F89 %29.86 in10.0 miNE (50°)11.5 mphMostly Cloudy
5:08 PM80.6 °F77.0 °F89 %29.86 in10.0 miNE (50°)12.7 mphMostly Cloudy
5:13 PM80.6 °F77.0 °F89 %29.86 in10.0 miNE (50°)11.5 mphMostly Cloudy
5:23 PM78.8 °F77.0 °F94 %29.86 in10.0 miENE (60°)9.2 mphMostly Cloudy
5:38 PM78.8 °F77.0 °F94 %29.87 in10.0 miENE (60°)10.4 mphMostly Cloudy
5:43 PM78.8 °F77.0 °F94 %29.87 in10.0 miNE (50°)10.4 mphScattered Clouds
5:53 PM78.8 °F77.0 °F94 %29.87 in10.0 miENE (60°)10.4 mphMostly Cloudy
5:58 PM79.0 °F77.0 °F94 %29.84 in10.0 miENE (60°)10.4 mphScattered Clouds
6:58 PM78.1 °F75.7 °F92 %29.86 in10.0 miENE (60°)9.2 mphPartly Cloudy
7:38 PM78.8 °F77.0 °F94 %29.89 in10.0 miENE (60°)10.4 mphMostly Cloudy
7:43 PM78.8 °F75.2 °F89 %29.90 in10.0 miENE (60°)10.4 mphScattered Clouds
7:58 PM78.1 °F75.9 °F93 %29.87 in10.0 miNE (50°)10.4 mphScattered Clouds
8:43 PM78.8 °F77.0 °F94 %29.91 in10.0 miNE (50°)12.7 mphScattered Clouds
8:53 PM78.8 °F77.0 °F94 %29.91 in10.0 miNE (50°)13.8 mphMostly Cloudy
8:58 PM78.8 °F76.5 °F92 %29.88 in10.0 miNE (50°)12.7 mphScattered Clouds
9:13 PM78.8 °F77.0 °F94 %29.91 in10.0 miNE (50°)11.5 mphMostly Cloudy
9:23 PM78.8 °F75.2 °F89 %29.91 in10.0 miNE (50°)10.4 mphScattered Clouds
9:33 PM78.8 °F77.0 °F94 %29.91 in10.0 miNE (50°)12.7 mphMostly Cloudy
9:38 PM78.8 °F77.0 °F94 %29.91 in10.0 miENE (70°)15.0 mph20.7 mphMostly Cloudy
9:43 PM78.8 °F77.0 °F94 %29.91 in5.0 miEast (80°)15.0 mph21.9 mphMostly Cloudy
9:44 PM77.0 °F77.0 °F100 %29.92 in4.0 miEast (80°)15.0 mph21.9 mphRainHeavy Rain
9:54 PM77.0 °F77.0 °F100 %29.91 in9.0 miEast (80°)15.0 mph19.6 mphRainLight Rain
9:55 PM77.0 °F77.0 °F100 %29.91 in10.0 miEast (80°)12.7 mph19.6 mphMostly Cloudy
9:58 PM77.0 °F77.0 °F100 %29.89 in10.0 miEast (80°)13.8 mph19.6 mph0.04 inMostly Cloudy
10:08 PM77.0 °F0.0 °F29.92 in10.0 miENE (70°)11.5 mphMostly Cloudy
10:18 PM77.0 °F0.0 °F29.92 in10.0 miEast (80°)11.5 mphMostly Cloudy
10:23 PM77.0 °F0.0 °F29.92 in10.0 miENE (70°)11.5 mphScattered Clouds
10:58 PM77.0 °F0.0 °F29.89 in10.0 miENE (60°)12.7 mph0.01 inScattered Clouds
11:58 PM76.6 °F75.6 °F96 %29.89 in10.0 miENE (60°)11.5 mphClear
Hourly data recorded from PGUA, located miles away from Umatac, Guam







STORIES FROM OUR PARTNERS